Burlington, CO

5:26 PM MDT on August 25, 2016 (GMT -0600)
Kit Carson County

Weather History for KITR - October, 2012

Change the Weather History Date:

Friday, October 5, 2012

  Actual Average Record
Temperature  
Mean Temperature 36 °F 55 °F  
Max Temperature 39 °F 70 °F 93 °F (2007)
Min Temperature 32 °F 40 °F 24 °F (1932)
Degree Days  
Heating Degree Days 30    
Moisture  
Dew Point 31 °F    
Average Humidity 85    
Maximum Humidity 100    
Minimum Humidity 70    
Precipitation  
Precipitation T in 0.04 in 0.83 in (1951)
Month to date precipitation 0.01 0.21  
Year to date precipitation 10.31 15.50  
Sea Level Pressure  
Sea Level Pressure 30.29 in    
Wind  
Wind Speed 10 mph (East)    
Max Wind Speed 17 mph    
Max Gust Speed 21 mph    
Visibility 8 miles    
Events Fog , Snow    
T = Trace of Precipitation, MM = Missing Value Source: NWS Daily Summary

Daily Weather History Graph

Daily Weather History Graph

Search for Another Location

Airport or City:

Trip Planner

Search our weather history database for the weather conditions in past years. The results will help you decide how hot, cold, wet, or windy it might be!

Date:

Astronomy

Oct. 05, 2012 Rise Set
Actual Time 6:49 AM MDT 6:24 PM MDT
Civil Twilight 6:22 AM MDT 6:51 PM MDT
Nautical Twilight 5:51 AM MDT 7:22 PM MDT
Astronomical Twilight 5:20 AM MDT 7:53 PM MDT
Moon 9:51 PM MDT (10/5) 11:57 AM MDT (10/5)
Length of Visible Light 12h 28m
Length of Day
11h 35m
Waning Gibbous, 73% of the Moon is Illuminated
Oct 5
Waning Gibbous
Oct 8
Last Quarter
Oct 15
New
Oct 21
First Quarter
Oct 29
Full

Hourly Weather History & Observations

Time (MDT) Temp. Windchill Dew Point Humidity Pressure Visibility Wind Dir Wind Speed Gust Speed Precip Events Conditions
12:53 AM 33.1 °F 26.1 °F 24.1 °F 70% 30.27 in 10.0 mi ENE 8.1 mph - N/A   Clear
1:53 AM 34.0 °F 29.8 °F 25.0 °F 70% 30.27 in 10.0 mi East 4.6 mph - N/A   Clear
2:53 AM 35.1 °F 26.4 °F 26.1 °F 70% 30.22 in 10.0 mi ESE 12.7 mph - N/A   Partly Cloudy
3:53 AM 35.1 °F 27.4 °F 26.1 °F 70% 30.19 in 10.0 mi East 10.4 mph 20.7 mph N/A   Clear
4:53 AM 35.1 °F 26.9 °F 26.1 °F 70% 30.22 in 10.0 mi East 11.5 mph - N/A   Mostly Cloudy
5:53 AM 36.0 °F 27.5 °F 27.0 °F 70% 30.20 in 10.0 mi East 12.7 mph - N/A   Overcast
6:53 AM 36.0 °F 28.5 °F 28.0 °F 73% 30.25 in 10.0 mi ESE 10.4 mph - N/A   Overcast
7:53 AM 36.0 °F 28.5 °F 28.0 °F 73% 30.30 in 9.0 mi East 10.4 mph - 0.00 in   Overcast
8:08 AM 35.6 °F 28.0 °F 28.4 °F 75% 30.28 in 2.0 mi East 10.4 mph - 0.00 in Snow Light Snow
8:42 AM 33.8 °F 25.8 °F 30.2 °F 87% 30.28 in 2.0 mi ESE 10.4 mph - 0.00 in Snow Light Snow
8:53 AM 33.1 °F 23.9 °F 30.9 °F 92% 30.30 in 2.5 mi ESE 12.7 mph - 0.00 in Snow Light Snow
8:57 AM 33.8 °F 24.3 °F 30.2 °F 87% 30.27 in 0.8 mi ESE 13.8 mph - 0.00 in Snow Light Snow
9:13 AM 32.0 °F 22.1 °F 30.2 °F 93% 30.26 in 1.0 mi ESE 13.8 mph - 0.00 in Snow Light Snow
9:30 AM 33.8 °F 23.9 °F 32.0 °F 93% 30.26 in 3.0 mi ESE 15.0 mph - 0.00 in Snow Light Snow
9:53 AM 34.0 °F 23.8 °F 32.0 °F 92% 30.29 in 9.0 mi SE 16.1 mph - 0.00 in   Overcast
10:44 AM 35.6 °F 25.5 °F 32.0 °F 87% 30.28 in 10.0 mi ESE 17.3 mph - N/A   Overcast
10:53 AM 37.0 °F 27.7 °F 33.1 °F 86% 30.30 in 10.0 mi SE 16.1 mph - N/A   Overcast
11:53 AM 37.0 °F 28.9 °F 32.0 °F 82% 30.32 in 10.0 mi ESE 12.7 mph - N/A   Overcast
12:53 PM 39.0 °F 29.9 °F 33.1 °F 79% 30.30 in 10.0 mi ESE 17.3 mph - N/A   Overcast
1:53 PM 39.0 °F 31.4 °F 32.0 °F 76% 30.29 in 10.0 mi East 12.7 mph - N/A   Overcast
2:16 PM 37.4 °F 29.8 °F 32.0 °F 81% 30.26 in 10.0 mi East 11.5 mph - N/A   Overcast
2:36 PM 37.4 °F 29.3 °F 33.8 °F 87% 30.26 in 10.0 mi East 12.7 mph - N/A   Overcast
2:41 PM 37.4 °F 30.3 °F 32.0 °F 81% 30.26 in 10.0 mi East 10.4 mph - N/A   Overcast
2:53 PM 37.0 °F 28.5 °F 33.1 °F 86% 30.30 in 10.0 mi East 13.8 mph - N/A   Overcast
3:04 PM 37.4 °F 29.8 °F 33.8 °F 87% 30.27 in 10.0 mi East 11.5 mph - N/A   Overcast
3:53 PM 35.1 °F 27.4 °F 32.0 °F 89% 30.31 in 10.0 mi East 10.4 mph - N/A   Overcast
4:36 PM 33.8 °F 25.8 °F 32.0 °F 93% 30.28 in 2.0 mi East 10.4 mph - N/A   Overcast
4:43 PM 33.8 °F 25.8 °F 33.8 °F 100% 30.28 in 1.8 mi East 10.4 mph - N/A   Overcast
4:53 PM 34.0 °F 26.0 °F 33.1 °F 96% 30.32 in 0.5 mi East 10.4 mph - N/A Fog Fog
5:15 PM 33.8 °F 26.4 °F 33.8 °F 100% 30.29 in 1.2 mi East 9.2 mph - N/A   Overcast
5:24 PM 33.8 °F 27.0 °F 33.8 °F 100% 30.29 in 3.0 mi East 8.1 mph - N/A   Overcast
5:53 PM 34.0 °F 27.2 °F 32.0 °F 92% 30.34 in 7.0 mi East 8.1 mph - N/A   Overcast
6:53 PM 34.0 °F 28.0 °F 33.1 °F 96% 30.35 in 10.0 mi ESE 6.9 mph - N/A   Overcast
7:53 PM 34.0 °F 26.6 °F 32.0 °F 92% 30.35 in 10.0 mi ENE 9.2 mph - N/A   Overcast
8:16 PM 33.8 °F 28.6 °F 32.0 °F 93% 30.32 in 10.0 mi ENE 5.8 mph - N/A   Overcast
8:53 PM 35.1 °F 30.1 °F 32.0 °F 89% 30.38 in 10.0 mi East 5.8 mph - N/A   Overcast
9:53 PM 35.1 °F 32.2 °F 33.1 °F 92% 30.38 in 10.0 mi East 3.5 mph - N/A   Overcast
10:53 PM 35.1 °F 28.6 °F 32.0 °F 89% 30.36 in 10.0 mi East 8.1 mph - N/A   Overcast
11:22 PM 35.6 °F 29.9 °F 32.0 °F 87% 30.32 in 10.0 mi ESE 6.9 mph - N/A   Overcast
11:35 PM 35.6 °F 29.9 °F 32.0 °F 87% 30.31 in 10.0 mi ESE 6.9 mph - N/A   Overcast
11:53 PM 34.0 °F 28.0 °F 30.9 °F 89% 30.34 in 10.0 mi ESE 6.9 mph - N/A   Overcast